ATLAS CENTAUR 2

Last updated on Sat Apr 13 2024 01:02:09 GMT+0100 (British Summer Time)

1 00694U 63047A 24103.48885694 .00001770 00000+0 21456-3 0 9996 2 00694 30.3528 113.3891 0567050 85.1628 281.3448 14.07227942 33296
UTC large
Height (km)
Speed (km/s)
/
Latitude / Longitude
Inclination (degrees)
Orbital Period (minutes)
Azimuth
Elevation
Range (km)
Doppler Factor

Next 0 passes for location: London (51.5072 / 0.1276)

Sorry there are no passes over London.